Location: Firdgum
(53.2488°N, 5.5615°E)
Time: 15:01:46
(UTC+00:00)

Cosmos 724 - Pass Details

Date: 08 December 2019
Orbit: 863 x 932 km, 65.6° (Epoch: 27 January)

Event Time Altitude Azimuth Distance (km) Brightness Sun altitude
Exits shadow 05:00:29 - 212° (SSW) 2,653 6.6 -22.2°
Reaches altitude 10° 05:00:40 10° 211° (SSW) 2,586 6.5 -22.2°
Maximum altitude 05:06:39 74° 128° (SE) 934 4.5 -21.3°
Drops below altitude 10° 05:12:34 10° 45° (NE) 2,553 7.1 -20.5°
Sets 05:15:03 0° 44° (NE) 3,486 7.9 -20.1°
